CAPE
nan nan nan nan nan nan nan nan nan nan nan nan nan nan nan nan nan nan nan nan nan nan nan nan nan nan 2 nan 1 1 5 5 4 4 2 0 nan nan 0 1 1 0 0 nan nan 0 0 0 0 3 5 7 7 7 9 10 10 12 14 14 14 17 20 22 22 23 20 17 16 16 12 3 0 0 nan nan nan nan nan nan nan nan nan nan nan nan
nan nan nan nan nan nan nan nan nan nan nan nan nan nan nan nan nan nan nan nan nan nan nan nan nan 1 18 2 1 1 4 7 6 6 4 2 0 0 1 2 2 1 0 0 0 0 nan nan nan 0 0 2 5 5 9 8 8 9 11 12 12 16 19 23 23 24 18 20 14 14 8 1 nan nan nan nan nan nan nan nan nan nan nan nan nan nan
nan nan nan nan nan nan nan nan nan nan 0 nan nan nan nan nan nan nan nan nan nan nan nan nan nan 0 12 7 2 2 4 9 12 12 6 3 0 0 2 2 2 1 1 0 0 nan nan nan nan nan nan nan nan nan 0 3 3 6 10 9 9 12 14 19 19 23 18 16 8 8 0 nan nan nan nan nan 0 0 nan nan nan nan nan nan nan nan
nan nan nan nan nan nan nan 1 0 0 nan 0 1 1 1 nan nan nan 1 nan nan nan nan nan nan nan 0 6 2 2 5 10 10 10 4 0 1 1 2 2 2 1 2 1 1 0 nan nan nan nan nan nan nan nan nan nan nan 1 5 3 3 nan 0 5 5 5 8 0 nan nan nan nan nan nan nan nan nan nan nan nan nan nan nan nan nan nan
nan nan 0 0 0 0 nan 1 0 0 nan 0 1 1 0 1 1 1 2 0 0 nan nan nan nan nan 0 1 1 1 4 15 9 9 4 1 2 2 2 2 2 1 2 1 1 0 nan nan nan nan nan nan nan nan nan nan nan 0 0 nan nan nan nan nan nan nan nan nan nan nan nan nan nan nan nan nan nan nan nan nan nan nan nan nan nan nan
0 nan 0 1 1 0 0 nan nan nan nan 1 1 1 1 1 1 1 1 1 1 0 0 0 0 nan 0 0 0 0 2 14 11 11 1 1 2 2 4 4 4 3 3 2 2 0 nan nan nan nan nan nan nan nan nan nan nan nan 0 nan nan nan nan nan nan nan nan nan nan nan nan nan nan nan nan nan nan nan nan nan nan nan nan nan nan nan
3 0 0 0 0 1 nan nan 0 0 1 1 0 0 nan nan nan nan 1 1 1 1 0 nan nan nan nan nan nan nan nan 8 3 3 1 2 4 4 5 5 5 5 3 2 2 1 0 nan nan nan nan nan nan nan nan nan nan nan nan nan nan nan nan nan nan nan nan nan nan nan nan nan nan nan nan nan nan nan nan nan nan nan nan nan nan nan
5 nan nan nan nan nan nan nan 0 0 0 nan 0 0 nan 0 0 0 0 0 0 nan 0 0 0 0 0 nan nan nan 3 nan nan nan 0 2 4 4 4 5 5 5 4 2 2 1 0 0 0 nan 0 0 nan nan nan nan nan nan nan nan nan nan nan nan nan nan nan nan nan nan nan nan nan nan nan nan nan nan nan nan nan nan nan nan nan nan
10 9 6 3 3 0 0 1 2 2 1 0 1 1 1 0 0 0 0 0 0 0 0 0 0 0 0 nan nan nan 0 nan nan nan nan nan nan nan 6 6 6 6 4 3 3 1 1 0 0 0 1 1 nan nan nan nan nan nan nan nan nan nan nan nan nan nan nan nan nan nan nan nan nan nan nan nan nan nan nan nan nan nan nan nan nan nan
3 3 6 9 9 0 nan nan 1 1 1 1 0 0 1 2 2 2 0 0 0 0 0 0 0 0 0 nan nan nan 0 nan 3 3 5 1 6 6 3 3 3 5 4 3 3 2 1 0 0 1 1 1 nan nan nan nan nan nan nan nan nan nan nan nan nan nan nan nan nan nan nan nan nan nan nan nan nan nan nan nan nan nan nan nan nan nan
6 5 10 3 3 nan nan nan nan nan 0 2 1 1 1 3 1 1 0 0 0 0 0 0 0 0 0 0 nan nan 0 nan nan nan nan nan nan nan 4 2 2 4 5 4 4 2 1 1 1 1 3 2 nan nan nan nan nan nan nan nan nan nan nan nan nan nan nan nan nan nan nan nan nan nan nan nan nan nan nan nan nan nan nan nan nan nan
5 5 4 3 3 nan nan nan nan nan 1 2 1 1 1 1 1 1 0 0 0 0 0 0 0 0 0 0 0 0 nan nan nan nan nan nan nan nan nan nan nan 6 6 10 10 5 3 2 2 3 3 4 1 1 nan nan nan nan nan nan nan nan nan nan nan nan nan nan nan nan nan nan nan nan nan nan nan nan nan nan nan nan nan nan nan nan
0 nan nan nan nan nan 0 nan 0 0 0 0 1 1 1 nan nan nan nan 0 0 0 0 0 0 0 0 nan 0 0 0 nan nan nan nan nan nan nan nan nan nan nan nan nan nan nan 2 2 2 1 3 7 4 4 nan nan nan nan nan nan nan nan nan nan nan nan nan nan nan nan nan nan nan nan nan nan nan nan nan nan nan nan nan nan nan nan
1 nan nan nan nan 1 3 nan 0 0 0 1 1 1 nan nan nan nan nan 0 0 0 nan 0 0 0 0 0 0 0 0 nan nan nan nan nan nan nan nan nan nan nan nan nan nan nan nan nan nan nan 2 6 6 6 2 nan nan nan nan nan nan nan nan nan nan nan nan nan nan nan nan nan nan nan nan nan nan nan nan nan nan nan nan nan nan nan
1 nan nan 0 0 1 3 3 0 0 0 nan nan nan nan nan nan nan nan 0 0 nan nan 0 0 0 0 0 0 0 0 0 nan nan nan nan nan nan nan nan nan nan nan nan nan nan nan nan nan nan nan 6 10 10 3 nan nan nan nan nan nan nan nan nan nan nan nan nan nan nan nan nan nan nan nan nan nan nan nan nan nan nan nan nan nan nan
2 nan 0 1 1 1 1 0 nan nan nan nan nan nan nan nan 0 0 nan 0 0 0 0 0 0 0 nan 0 0 0 0 0 nan nan nan nan nan nan nan nan nan nan nan nan nan nan nan nan nan nan nan 4 4 4 2 1 1 nan nan nan nan nan nan nan nan nan nan nan nan nan nan nan nan nan nan nan nan nan nan nan nan nan nan nan nan nan
5 1 nan 1 1 1 2 nan nan nan nan nan nan nan nan 0 nan nan nan nan nan nan 0 0 0 0 0 0 0 0 nan nan nan nan nan nan nan nan nan nan nan nan nan nan nan nan nan nan nan nan nan 4 6 6 2 0 0 1 nan nan nan nan nan nan nan nan nan nan nan nan nan nan nan nan nan nan nan nan nan nan nan nan nan nan nan nan
2 1 0 1 1 1 5 nan nan nan nan nan nan nan nan nan nan nan nan nan nan nan nan nan nan nan nan nan 0 0 nan nan nan nan nan nan nan nan nan nan nan nan nan nan nan nan nan nan nan nan nan 4 5 5 2 1 1 2 1 0 0 nan nan nan nan nan nan nan nan nan nan nan nan nan nan nan nan nan nan nan nan nan nan nan nan nan
4 4 1 1 1 3 1 nan nan nan nan nan nan nan nan nan nan nan nan nan nan nan nan nan nan nan nan nan 0 0 0 0 nan nan nan nan 0 0 nan nan nan nan nan nan nan nan nan nan nan nan nan nan 2 2 5 5 5 4 3 1 1 0 nan nan nan nan nan nan nan nan nan nan nan nan 0 nan nan nan nan nan nan nan nan nan nan nan
4 2 1 1 1 0 nan 0 0 0 1 0 nan nan nan nan 0 0 nan nan nan nan nan nan nan 0 nan 0 0 0 nan 0 nan nan nan nan nan nan nan nan nan nan nan nan nan nan nan nan nan nan nan nan nan nan 4 8 8 7 4 2 2 1 nan nan nan nan nan nan nan nan nan nan 0 0 1 1 0 0 nan nan nan nan nan nan nan nan
2 2 3 2 2 1 1 1 2 2 2 nan 0 0 1 0 0 0 nan nan nan nan nan nan nan nan nan 0 nan nan nan 0 nan nan nan nan nan nan nan nan nan nan nan nan nan nan nan nan nan nan nan nan nan nan 1 5 5 6 3 2 2 0 nan nan nan nan nan nan nan nan nan nan 0 0 1 1 1 1 0 nan nan nan nan nan nan nan
2 2 2 1 1 1 2 4 5 5 nan nan 0 0 1 nan 0 0 0 nan nan nan 0 nan nan nan nan nan nan nan nan 0 nan nan nan nan nan nan nan nan nan nan nan nan nan nan nan nan nan nan nan nan nan nan nan 2 2 3 2 0 0 nan nan nan nan nan nan nan nan nan nan nan nan nan 0 1 2 2 1 0 0 nan nan 0 0 0
0 nan nan nan nan nan nan 1 3 3 3 nan 4 4 2 1 2 2 0 1 1 2 nan nan nan nan nan nan nan nan nan nan 0 0 nan nan nan nan nan nan nan nan nan nan nan nan nan nan nan nan nan nan nan nan nan nan nan 0 0 nan nan nan nan nan nan nan nan nan nan nan nan nan nan nan nan 0 2 2 1 1 1 0 0 0 0 0
nan nan nan nan nan nan nan nan 1 1 2 0 0 0 0 nan nan nan 0 nan nan nan nan nan nan nan nan nan nan nan nan nan nan nan nan nan nan nan nan nan nan nan nan nan nan nan nan nan nan nan nan nan nan nan nan nan nan nan nan nan nan nan nan nan nan nan nan nan nan nan nan nan nan nan nan 0 2 2 2 1 1 1 1 1 1 1
nan nan nan nan nan nan nan nan 0 0 0 nan nan nan nan nan nan nan nan nan nan nan nan nan nan nan nan nan nan nan nan nan nan nan 0 nan nan nan nan nan nan nan nan nan nan nan nan nan nan nan nan nan nan nan nan nan nan nan nan nan nan nan nan nan nan nan nan nan nan nan nan nan nan nan nan 0 2 2 3 2 2 2 1 1 1 2
nan nan nan nan nan nan 0 0 0 0 0 nan nan nan nan nan nan nan nan nan nan nan nan nan nan nan nan nan nan nan nan nan nan nan nan nan nan nan nan nan nan nan nan nan nan nan nan nan nan nan nan nan nan nan nan nan nan nan nan nan nan nan nan nan nan nan nan nan nan nan nan nan nan nan nan 0 2 2 4 4 4 3 2 2 2 4
0 1 1 1 1 1 1 2 1 1 0 nan nan nan nan nan nan nan nan nan nan nan nan 0 0 0 nan nan nan nan nan nan nan nan nan nan nan nan nan nan nan nan nan nan nan nan nan nan nan nan nan nan nan nan nan nan nan nan nan nan nan nan nan nan nan nan nan 0 0 0 0 nan nan nan 0 1 3 3 5 5 5 5 4 3 3 4
0 1 1 2 2 2 2 2 2 2 2 1 0 0 nan nan nan nan nan nan nan nan nan 0 0 1 nan nan nan nan nan nan nan nan nan nan nan nan nan nan nan nan nan nan nan nan nan nan nan nan nan nan nan nan nan nan nan nan nan nan nan nan nan nan nan nan 0 1 1 1 0 0 nan nan 0 2 5 5 6 6 6 5 6 0 0 nan
nan nan 1 2 2 3 3 3 4 4 3 3 1 1 nan nan nan nan nan nan nan nan nan 0 0 1 1 nan nan nan nan nan nan nan nan nan nan nan nan nan nan nan nan nan nan nan nan nan nan nan nan nan nan nan nan nan nan nan nan nan nan nan nan nan nan 0 1 1 1 1 0 0 0 0 1 2 6 6 9 8 8 7 4 1 1 nan
nan nan nan 0 0 2 3 3 4 4 5 3 1 1 nan nan nan nan nan nan nan nan nan 0 0 nan nan nan nan nan nan nan nan nan nan nan nan nan nan nan nan nan nan nan nan nan nan nan nan nan nan nan nan nan nan nan nan nan nan nan nan nan nan nan nan 0 0 0 0 0 0 nan 0 0 1 3 8 8 10 11 11 7 1 0 0 nan
nan nan nan nan nan nan nan nan 0 0 0 0 nan nan nan nan nan nan nan nan nan nan 0 0 0 nan nan nan nan nan nan nan nan nan nan nan nan nan nan nan nan nan nan nan nan nan nan nan nan nan nan nan nan nan nan nan nan nan nan nan nan nan nan nan nan nan nan nan nan nan nan nan 0 0 1 5 9 9 12 15 15 8 1 0 0 nan
nan nan nan nan nan nan nan nan nan nan nan nan nan nan nan nan nan nan nan nan nan nan nan nan nan nan 0 nan 1 1 nan nan nan nan nan nan nan nan nan nan nan nan nan nan nan nan nan nan nan nan nan nan nan nan nan nan nan nan nan nan nan nan nan nan nan nan nan nan nan nan nan nan 1 1 3 5 11 11 15 17 17 16 4 1 1 1
nan nan nan nan nan nan nan nan nan nan nan nan nan nan nan nan nan nan nan nan nan nan nan nan nan nan nan nan nan nan nan nan nan nan nan nan nan nan nan nan nan nan nan nan nan nan nan nan nan nan nan nan nan nan nan nan nan nan nan nan nan nan nan nan nan nan nan nan nan nan nan nan 2 2 4 8 13 13 16 18 18 22 17 2 2 7
nan nan nan nan nan nan nan nan nan nan nan nan nan nan nan nan nan nan nan nan nan nan nan nan nan nan nan nan nan nan nan nan nan nan nan nan nan nan nan nan nan nan nan nan nan nan nan nan nan nan nan nan nan nan nan nan nan nan nan nan nan nan nan nan nan nan nan nan nan nan nan nan 3 3 5 8 12 12 15 16 16 21 26 13 13 7
nan nan nan nan nan nan nan nan nan nan nan nan nan nan nan nan nan nan nan nan nan nan nan nan nan nan nan nan nan nan nan nan nan nan nan nan nan nan nan nan nan nan nan nan nan nan nan nan nan nan nan nan nan nan nan nan nan nan nan nan nan nan nan nan nan nan nan nan nan nan nan nan nan nan 0 5 9 9 13 15 15 18 23 23 23 15
nan nan nan nan nan nan nan nan nan nan nan nan nan nan nan nan nan nan nan nan nan nan nan nan nan nan nan nan nan nan nan nan nan nan nan nan nan nan nan nan nan nan nan nan nan nan nan nan nan nan nan nan nan nan nan nan nan nan nan nan nan nan nan nan nan nan nan nan nan nan nan nan nan nan nan 5 8 8 12 15 15 18 23 23 23 20
nan nan nan nan nan nan nan nan nan nan nan nan nan nan nan nan nan nan nan nan nan nan nan nan nan nan nan nan nan nan nan nan nan nan nan nan nan nan nan nan nan nan nan nan nan nan nan nan nan nan nan nan nan nan nan nan nan nan nan nan nan nan nan nan nan nan nan nan nan nan nan nan nan nan nan 4 7 7 13 18 18 19 21 24 24 22
nan nan nan nan nan nan nan nan nan nan nan nan nan nan nan nan nan nan nan nan nan nan nan nan nan nan nan nan nan nan nan nan nan nan nan nan nan nan nan nan nan nan nan nan nan nan nan nan nan nan nan nan nan nan nan nan nan nan nan nan nan nan nan nan nan nan nan nan nan nan nan nan nan nan nan 1 2 2 5 9 9 18 21 24 24 24
nan nan nan nan nan nan nan nan nan nan nan nan nan nan nan nan nan nan nan nan nan nan nan nan nan nan nan nan nan nan nan nan nan nan nan nan nan nan nan nan nan nan nan nan nan nan nan nan nan nan nan nan nan nan nan nan nan nan nan nan nan nan nan nan nan nan nan nan nan nan nan nan nan nan nan nan 0 0 2 3 3 8 10 9 9 22
nan nan nan nan nan nan nan nan nan nan nan nan nan nan nan nan nan nan nan nan nan nan nan nan nan nan nan nan nan nan nan nan nan nan nan nan nan nan nan nan nan nan nan nan nan nan nan nan nan nan nan nan nan nan nan nan nan nan nan nan nan nan nan nan nan nan nan nan nan nan nan nan nan nan nan nan nan nan 0 nan nan 1 4 3 3 5
nan nan nan nan nan nan nan nan nan nan nan nan nan nan nan nan nan nan nan nan nan nan nan nan nan nan nan nan nan nan nan nan nan nan nan nan nan nan nan nan nan nan nan nan nan nan nan nan nan nan nan nan nan nan nan nan nan nan nan nan nan nan nan nan nan nan nan nan nan nan nan nan nan nan nan nan nan nan nan nan nan nan 2 1 1 0
nan nan nan nan nan nan nan nan nan nan nan nan nan nan nan nan nan nan nan nan nan nan nan nan nan nan nan nan nan nan nan nan nan nan nan nan nan nan nan nan nan nan nan nan nan nan nan nan nan nan nan nan nan nan nan nan nan nan nan nan nan nan nan nan nan nan nan nan nan nan nan nan nan nan nan nan nan nan nan nan nan nan 1 0 0 nan
nan nan nan nan nan nan nan nan nan nan nan nan nan nan nan nan nan nan nan nan nan nan nan nan nan nan nan nan nan nan nan nan nan nan nan nan nan nan nan nan nan nan nan nan nan nan nan nan nan nan nan nan nan nan nan nan nan nan nan nan nan nan nan nan nan nan nan nan nan nan nan nan nan nan nan nan nan nan nan nan nan nan 0 nan nan nan
nan nan nan nan nan nan nan nan nan nan nan nan nan nan nan nan nan nan nan nan nan nan nan nan nan nan nan nan nan nan nan nan nan nan nan nan nan nan nan nan nan nan nan nan nan nan nan nan nan nan nan nan nan nan nan nan nan nan nan nan nan nan nan nan nan nan nan nan nan nan nan nan nan nan nan nan nan nan nan nan nan nan nan nan nan nan
nan nan nan nan nan nan nan nan nan nan nan nan nan nan nan nan nan nan nan nan nan nan nan nan nan nan nan nan nan nan nan nan nan nan nan nan nan nan nan nan nan nan nan nan nan nan nan nan nan nan nan nan nan nan nan nan nan nan nan nan nan nan nan nan nan nan nan nan nan nan nan nan nan nan nan nan nan nan nan nan nan nan nan nan nan nan
nan nan nan nan nan nan nan nan nan nan nan nan nan nan nan nan nan nan nan nan nan nan nan nan nan nan nan nan nan nan nan nan nan nan nan nan nan nan nan nan nan nan nan nan nan nan nan nan nan nan nan nan nan nan nan nan nan nan nan nan nan nan nan nan nan nan nan nan nan nan nan nan nan nan nan nan nan nan nan nan nan nan nan nan nan nan
nan nan nan nan nan nan nan nan nan nan nan nan nan nan nan nan nan nan nan nan nan nan nan nan nan nan nan nan nan nan nan nan nan nan nan nan nan nan nan nan nan nan nan nan nan nan nan nan nan nan nan nan nan nan nan nan nan nan nan nan nan nan nan nan nan nan nan nan nan nan nan nan nan nan nan nan nan nan nan nan nan nan nan nan nan nan
nan nan nan nan nan nan nan nan nan nan nan nan nan nan nan nan nan nan nan nan nan nan nan nan nan nan nan nan nan nan nan nan nan nan nan nan nan nan nan nan nan nan nan nan nan nan nan nan nan nan nan nan nan nan nan nan nan nan nan nan nan nan nan nan nan nan nan nan nan nan nan nan nan nan nan nan nan nan nan nan nan nan nan nan nan nan
nan nan nan nan nan nan 0 0 0 0 0 0 nan nan nan nan nan nan nan nan nan nan nan nan nan nan nan nan nan nan nan nan nan nan nan nan nan nan nan nan nan nan nan nan nan nan nan nan nan nan nan nan nan nan nan nan nan nan nan nan nan nan nan nan nan nan nan nan nan nan nan nan nan nan nan nan nan nan nan nan nan nan nan nan nan nan
nan nan nan nan nan nan 0 nan 0 0 0 0 nan nan 0 nan nan nan nan nan nan nan nan nan nan nan nan nan nan nan nan nan nan nan nan nan nan nan nan nan nan nan nan nan nan nan nan nan nan nan nan nan nan nan nan nan nan nan nan nan nan nan nan nan nan nan nan nan nan nan nan nan nan nan nan nan nan nan nan nan nan nan nan nan nan nan
nan nan nan nan nan 0 0 0 0 0 0 0 0 0 0 nan nan nan nan nan nan nan nan nan nan nan nan nan nan nan nan nan nan nan nan nan nan nan nan nan nan nan nan nan nan nan nan nan nan nan nan nan nan nan nan nan nan nan nan nan nan nan nan nan nan nan nan nan nan nan nan nan nan nan nan nan nan nan nan nan nan nan nan nan nan nan
CIN
nan nan nan nan nan nan nan nan nan nan nan nan nan nan nan nan nan nan nan nan nan nan nan nan nan nan -16 nan -17 -17 -6 -3 -4 -4 -6 -6 nan nan -0 -0 -0 -0 -0 nan nan -0 -0 -0 -0 -0 -0 -1 -1 -1 -1 -0 -0 -0 -0 -1 -1 -0 -0 -0 -0 -0 -0 -0 -0 -0 -0 -0 -1 -1 nan nan nan nan nan nan nan nan nan nan nan nan
nan nan nan nan nan nan nan nan nan nan nan nan nan nan nan nan nan nan nan nan nan nan nan nan nan -10 -3 -9 -14 -14 -7 -1 -0 -0 -5 -6 -3 -3 -0 -0 -0 -0 -0 -0 -0 -0 nan nan nan -0 -0 -1 -1 -1 -1 -3 -3 -1 -1 -1 -1 -0 -1 -0 -0 -0 -0 -0 -0 -0 -0 -0 nan nan nan nan nan nan nan nan nan nan nan nan nan nan
nan nan nan nan nan nan nan nan nan nan -0 nan nan nan nan nan nan nan nan nan nan nan nan nan nan -5 -1 -3 -6 -6 -7 -3 -0 -0 -3 -5 -1 -1 -0 -0 -0 -0 -0 -0 -0 nan nan nan nan nan nan nan nan nan -1 -1 -1 -1 -0 -0 -0 -0 -0 -0 -0 -0 -1 -0 -0 -0 -0 nan nan nan nan nan -0 -0 nan nan nan nan nan nan nan nan
nan nan nan nan nan nan nan -0 -1 -1 nan -0 -0 -0 -0 nan nan nan -1 nan nan nan nan nan nan nan -0 -1 -2 -2 -4 -3 -1 -1 -1 -5 -0 -0 -0 -0 -0 -0 -0 -0 -0 -0 nan nan nan nan nan nan nan nan nan nan nan -3 -3 -1 -1 nan -3 -2 -2 -4 -5 -2 nan nan nan nan nan nan nan nan nan nan nan nan nan nan nan nan nan nan
nan nan -0 -0 -0 -0 nan -1 -1 -1 nan -1 -0 -0 -0 -0 -0 -0 -0 -0 -0 nan nan nan nan nan -0 -0 -0 -0 -1 -1 -2 -2 -0 -0 -0 -0 -0 -0 -0 -0 -0 -0 -0 -0 nan nan nan nan nan nan nan nan nan nan nan -6 -5 nan nan nan nan nan nan nan nan nan nan nan nan nan nan nan nan nan nan nan nan nan nan nan nan nan nan nan
-8 nan -0 -0 -0 -0 -1 nan nan nan nan -1 -0 -0 -0 -0 -0 -0 -0 -0 -0 -0 -0 -0 -0 nan -0 -0 -0 -0 -4 -1 -2 -2 -0 -0 -0 -0 -0 -0 -0 -0 -0 -0 -0 -0 nan nan nan nan nan nan nan nan nan nan nan nan -6 nan nan nan nan nan nan nan nan nan nan nan nan nan nan nan nan nan nan nan nan nan nan nan nan nan nan nan
-5 -0 -0 -0 -0 -0 nan nan -1 -1 -0 -1 -1 -1 nan nan nan nan -0 -0 -0 -0 -0 nan nan nan nan nan nan nan nan -4 -3 -3 -0 -0 -0 -0 -0 -0 -0 -0 -0 -0 -0 -0 -0 nan nan nan nan nan nan nan nan nan nan nan nan nan nan nan nan nan nan nan nan nan nan nan nan nan nan nan nan nan nan nan nan nan nan nan nan nan nan nan
-8 nan nan nan nan nan nan nan -2 -2 -2 nan -1 -1 nan -0 -0 -0 -0 -0 -0 nan -0 -0 -0 -0 -0 nan nan nan -0 nan nan nan -0 -0 -0 -0 -0 -0 -0 -0 -0 -0 -0 -0 -0 -0 -0 nan -0 -0 nan nan nan nan nan nan nan nan nan nan nan nan nan nan nan nan nan nan nan nan nan nan nan nan nan nan nan nan nan nan nan nan nan nan
-2 -4 -6 -2 -2 -0 -1 -2 -1 -1 -1 -1 -0 -0 -0 -0 -0 -0 -0 -0 -0 -0 -0 -0 -0 -0 -0 nan nan nan -0 nan nan nan nan nan nan nan -0 -0 -0 -0 -0 -0 -0 -0 -0 -0 -0 -0 -0 -0 nan nan nan nan nan nan nan nan nan nan nan nan nan nan nan nan nan nan nan nan nan nan nan nan nan nan nan nan nan nan nan nan nan nan
-2 -2 -2 -3 -3 -5 nan nan -1 -1 -0 -0 -0 -0 -0 -0 -0 -0 -0 -0 -0 -0 -0 -0 -0 -0 -0 nan nan nan -0 nan -0 -0 -0 -0 -0 -0 -0 -1 -1 -0 -0 -0 -0 -0 -0 -0 -0 -0 -0 -0 nan nan nan nan nan nan nan nan nan nan nan nan nan nan nan nan nan nan nan nan nan nan nan nan nan nan nan nan nan nan nan nan nan nan
-1 -2 -2 -1 -1 nan nan nan nan nan -0 -0 -0 -0 -0 -0 -0 -0 -0 -0 -0 -0 -0 -0 -0 -0 -0 -0 nan nan -0 nan nan nan nan nan nan nan -1 -1 -1 -0 -0 -0 -0 -0 -0 -0 -0 -0 -0 -0 nan nan nan nan nan nan nan nan nan nan nan nan nan nan nan nan nan nan nan nan nan nan nan nan nan nan nan nan nan nan nan nan nan nan
-1 -1 -1 -0 -0 nan nan nan nan nan -0 -0 -0 -0 -0 -1 -2 -2 -1 -1 -1 -0 -0 -0 -0 -0 -0 -0 -0 -0 nan nan nan nan nan nan nan nan nan nan nan -2 -2 -0 -0 -1 -0 -0 -0 -0 -0 -0 -1 -1 nan nan nan nan nan nan nan nan nan nan nan nan nan nan nan nan nan nan nan nan nan nan nan nan nan nan nan nan nan nan nan nan
-3 nan nan nan nan nan -2 nan -0 -0 -0 -0 -0 -0 -1 nan nan nan nan -0 -0 -0 -0 -0 -0 -0 -0 nan -0 -0 -0 nan nan nan nan nan nan nan nan nan nan nan nan nan nan nan -0 -0 -0 -0 -1 -2 -2 -2 nan nan nan nan nan nan nan nan nan nan nan nan nan nan nan nan nan nan nan nan nan nan nan nan nan nan nan nan nan nan nan nan
-2 nan nan nan nan -1 -1 nan -0 -0 -0 -1 -2 -2 nan nan nan nan nan -0 -0 -0 nan -0 -0 -0 -0 -0 -0 -0 -0 nan nan nan nan nan nan nan nan nan nan nan nan nan nan nan nan nan nan nan -0 -1 -0 -0 -0 nan nan nan nan nan nan nan nan nan nan nan nan nan nan nan nan nan nan nan nan nan nan nan nan nan nan nan nan nan nan nan
-2 nan nan -1 -1 -1 -1 -1 -1 -1 -1 nan nan nan nan nan nan nan nan -0 -0 nan nan -0 -0 -0 -0 -0 -0 -0 -0 -0 nan nan nan nan nan nan nan nan nan nan nan nan nan nan nan nan nan nan nan -1 -1 -1 -0 nan nan nan nan nan nan nan nan nan nan nan nan nan nan nan nan nan nan nan nan nan nan nan nan nan nan nan nan nan nan nan
-1 nan -0 -1 -1 -2 -3 -2 nan nan nan nan nan nan nan nan -0 -0 nan -0 -0 -0 -0 -0 -0 -0 nan -0 -0 -0 -0 -0 nan nan nan nan nan nan nan nan nan nan nan nan nan nan nan nan nan nan nan -1 -2 -2 -0 -0 -0 nan nan nan nan nan nan nan nan nan nan nan nan nan nan nan nan nan nan nan nan nan nan nan nan nan nan nan nan nan
-0 -1 nan -0 -0 -1 -2 nan nan nan nan nan nan nan nan -0 nan nan nan nan nan nan -0 -0 -0 -0 -0 -0 -0 -0 nan nan nan nan nan nan nan nan nan nan nan nan nan nan nan nan nan nan nan nan nan -1 -0 -0 -0 -0 -0 -0 nan nan nan nan nan nan nan nan nan nan nan nan nan nan nan nan nan nan nan nan nan nan nan nan nan nan nan nan
-0 -1 -1 -1 -1 -1 -1 nan nan nan nan nan nan nan nan nan nan nan nan nan nan nan nan nan nan nan nan nan -0 -0 nan nan nan nan nan nan nan nan nan nan nan nan nan nan nan nan nan nan nan nan nan -1 -1 -1 -1 -0 -0 -0 -0 -0 -0 nan nan nan nan nan nan nan nan nan nan nan nan nan nan nan nan nan nan nan nan nan nan nan nan nan
-0 -0 -1 -1 -1 -1 -2 nan nan nan nan nan nan nan nan nan nan nan nan nan nan nan nan nan nan nan nan nan -0 -0 -0 -0 nan nan nan nan -0 -0 nan nan nan nan nan nan nan nan nan nan nan nan nan nan -1 -1 -0 -0 -0 -0 -0 -0 -0 -0 nan nan nan nan nan nan nan nan nan nan nan nan -0 nan nan nan nan nan nan nan nan nan nan nan
-0 -1 -1 -1 -1 -1 nan -2 -2 -2 -1 -2 nan nan nan nan -0 -0 nan nan nan nan nan nan nan -3 nan -0 -0 -0 nan -0 nan nan nan nan nan nan nan nan nan nan nan nan nan nan nan nan nan nan nan nan nan nan -0 -0 -0 -0 -0 -0 -0 -0 nan nan nan nan nan nan nan nan nan nan -0 -0 -0 -0 -0 -0 nan nan nan nan nan nan nan nan
-0 -1 -1 -1 -1 -0 -0 -1 -1 -1 -1 nan -1 -1 -0 -0 -0 -0 nan nan nan nan nan nan nan nan nan -0 nan nan nan -0 nan nan nan nan nan nan nan nan nan nan nan nan nan nan nan nan nan nan nan nan nan nan -3 -0 -0 -0 -0 -0 -0 -0 nan nan nan nan nan nan nan nan nan nan -0 -0 -0 -0 -0 -0 -0 nan nan nan nan nan nan nan
-0 -0 -0 -0 -0 -1 -0 -1 -0 -0 nan nan -0 -0 -0 nan -0 -0 -1 nan nan nan -1 nan nan nan nan nan nan nan nan -0 nan nan nan nan nan nan nan nan nan nan nan nan nan nan nan nan nan nan nan nan nan nan nan -0 -0 -0 -0 -0 -0 nan nan nan nan nan nan nan nan nan nan nan nan nan -0 -0 -0 -0 -0 -0 -0 nan nan -0 -0 -0
-1 nan nan nan nan nan nan -2 -1 -1 -1 nan -0 -0 -1 -1 -0 -0 -1 -1 -1 -1 nan nan nan nan nan nan nan nan nan nan -0 -0 nan nan nan nan nan nan nan nan nan nan nan nan nan nan nan nan nan nan nan nan nan nan nan -1 -1 nan nan nan nan nan nan nan nan nan nan nan nan nan nan nan nan -0 -0 -0 -0 -0 -0 -0 -0 -0 -0 -0
nan nan nan nan nan nan nan nan -2 -2 -1 -0 -0 -0 -0 nan nan nan -0 nan nan nan nan nan nan nan nan nan nan nan nan nan nan nan nan nan nan nan nan nan nan nan nan nan nan nan nan nan nan nan nan nan nan nan nan nan nan nan nan nan nan nan nan nan nan nan nan nan nan nan nan nan nan nan nan -0 -0 -0 -0 -0 -0 -0 -0 -0 -0 -0
nan nan nan nan nan nan nan nan -2 -2 -2 nan nan nan nan nan nan nan nan nan nan nan nan nan nan nan nan nan nan nan nan nan nan nan -0 nan nan nan nan nan nan nan nan nan nan nan nan nan nan nan nan nan nan nan nan nan nan nan nan nan nan nan nan nan nan nan nan nan nan nan nan nan nan nan nan -0 -0 -0 -0 -0 -0 -0 -0 -0 -0 -0
nan nan nan nan nan nan -0 -0 -0 -0 -1 nan nan nan nan nan nan nan nan nan nan nan nan nan nan nan nan nan nan nan nan nan nan nan nan nan nan nan nan nan nan nan nan nan nan nan nan nan nan nan nan nan nan nan nan nan nan nan nan nan nan nan nan nan nan nan nan nan nan nan nan nan nan nan nan -0 -0 -0 -0 -0 -0 -0 -0 -0 -0 -0
-0 -0 -0 -0 -0 -0 -0 -0 -0 -0 -0 nan nan nan nan nan nan nan nan nan nan nan nan -0 -0 -0 nan nan nan nan nan nan nan nan nan nan nan nan nan nan nan nan nan nan nan nan nan nan nan nan nan nan nan nan nan nan nan nan nan nan nan nan nan nan nan nan nan -0 -0 -0 -0 nan nan nan -0 -0 -0 -0 -0 -0 -0 -0 -0 -0 -0 -1
-0 -0 -0 -0 -0 -0 -0 -0 -0 -0 -0 -0 -0 -0 nan nan nan nan nan nan nan nan nan -0 -0 -0 nan nan nan nan nan nan nan nan nan nan nan nan nan nan nan nan nan nan nan nan nan nan nan nan nan nan nan nan nan nan nan nan nan nan nan nan nan nan nan nan -0 -0 -0 -0 -0 -0 nan nan -0 -0 -0 -0 -0 -0 -0 -0 -0 -11 -11 nan
nan nan -0 -0 -0 -0 -0 -0 -0 -0 -0 -0 -0 -0 nan nan nan nan nan nan nan nan nan -1 -1 -1 -2 nan nan nan nan nan nan nan nan nan nan nan nan nan nan nan nan nan nan nan nan nan nan nan nan nan nan nan nan nan nan nan nan nan nan nan nan nan nan -0 -0 -0 -0 -0 -0 -0 -0 -0 -0 -0 -0 -0 -0 -0 -0 -0 -0 -12 -12 nan
nan nan nan -0 -0 -0 -0 -0 -0 -0 -0 -0 -0 -0 nan nan nan nan nan nan nan nan nan -1 -1 nan nan nan nan nan nan nan nan nan nan nan nan nan nan nan nan nan nan nan nan nan nan nan nan nan nan nan nan nan nan nan nan nan nan nan nan nan nan nan nan -0 -0 -0 -0 -0 -0 nan -0 -0 -0 -0 -0 -0 -0 -0 -0 -0 -7 -19 -19 nan
nan nan nan nan nan nan nan nan -0 -0 -0 -0 nan nan nan nan nan nan nan nan nan nan -1 -2 -2 nan nan nan nan nan nan nan nan nan nan nan nan nan nan nan nan nan nan nan nan nan nan nan nan nan nan nan nan nan nan nan nan nan nan nan nan nan nan nan nan nan nan nan nan nan nan nan -0 -0 -0 -0 -0 -0 -0 -0 -0 -0 -12 -22 -22 nan
nan nan nan nan nan nan nan nan nan nan nan nan nan nan nan nan nan nan nan nan nan nan nan nan nan nan -4 nan -1 -1 nan nan nan nan nan nan nan nan nan nan nan nan nan nan nan nan nan nan nan nan nan nan nan nan nan nan nan nan nan nan nan nan nan nan nan nan nan nan nan nan nan nan -0 -0 -0 -0 -0 -0 -0 -0 -0 -0 -10 -16 -16 -16
nan nan nan nan nan nan nan nan nan nan nan nan nan nan nan nan nan nan nan nan nan nan nan nan nan nan nan nan nan nan nan nan nan nan nan nan nan nan nan nan nan nan nan nan nan nan nan nan nan nan nan nan nan nan nan nan nan nan nan nan nan nan nan nan nan nan nan nan nan nan nan nan -0 -0 -0 -0 -0 -0 -0 -0 -0 -0 -1 -17 -17 -8
nan nan nan nan nan nan nan nan nan nan nan nan nan nan nan nan nan nan nan nan nan nan nan nan nan nan nan nan nan nan nan nan nan nan nan nan nan nan nan nan nan nan nan nan nan nan nan nan nan nan nan nan nan nan nan nan nan nan nan nan nan nan nan nan nan nan nan nan nan nan nan nan -0 -0 -0 -0 -0 -0 -0 -0 -0 -0 -0 -3 -3 -9
nan nan nan nan nan nan nan nan nan nan nan nan nan nan nan nan nan nan nan nan nan nan nan nan nan nan nan nan nan nan nan nan nan nan nan nan nan nan nan nan nan nan nan nan nan nan nan nan nan nan nan nan nan nan nan nan nan nan nan nan nan nan nan nan nan nan nan nan nan nan nan nan nan nan -15 -1 -0 -0 -0 -0 -0 -0 -0 -0 -0 -1
nan nan nan nan nan nan nan nan nan nan nan nan nan nan nan nan nan nan nan nan nan nan nan nan nan nan nan nan nan nan nan nan nan nan nan nan nan nan nan nan nan nan nan nan nan nan nan nan nan nan nan nan nan nan nan nan nan nan nan nan nan nan nan nan nan nan nan nan nan nan nan nan nan nan nan -0 -0 -0 -0 -0 -0 -0 -0 -0 -0 -0
nan nan nan nan nan nan nan nan nan nan nan nan nan nan nan nan nan nan nan nan nan nan nan nan nan nan nan nan nan nan nan nan nan nan nan nan nan nan nan nan nan nan nan nan nan nan nan nan nan nan nan nan nan nan nan nan nan nan nan nan nan nan nan nan nan nan nan nan nan nan nan nan nan nan nan -0 -0 -0 -0 -0 -0 -0 -0 -0 -0 -0
nan nan nan nan nan nan nan nan nan nan nan nan nan nan nan nan nan nan nan nan nan nan nan nan nan nan nan nan nan nan nan nan nan nan nan nan nan nan nan nan nan nan nan nan nan nan nan nan nan nan nan nan nan nan nan nan nan nan nan nan nan nan nan nan nan nan nan nan nan nan nan nan nan nan nan -11 -11 -11 -7 -7 -7 -0 -0 -0 -0 -0
nan nan nan nan nan nan nan nan nan nan nan nan nan nan nan nan nan nan nan nan nan nan nan nan nan nan nan nan nan nan nan nan nan nan nan nan nan nan nan nan nan nan nan nan nan nan nan nan nan nan nan nan nan nan nan nan nan nan nan nan nan nan nan nan nan nan nan nan nan nan nan nan nan nan nan nan -13 -13 -8 -8 -8 -3 -5 -9 -9 -0
nan nan nan nan nan nan nan nan nan nan nan nan nan nan nan nan nan nan nan nan nan nan nan nan nan nan nan nan nan nan nan nan nan nan nan nan nan nan nan nan nan nan nan nan nan nan nan nan nan nan nan nan nan nan nan nan nan nan nan nan nan nan nan nan nan nan nan nan nan nan nan nan nan nan nan nan nan nan -16 nan nan -12 -8 -9 -9 -6
nan nan nan nan nan nan nan nan nan nan nan nan nan nan nan nan nan nan nan nan nan nan nan nan nan nan nan nan nan nan nan nan nan nan nan nan nan nan nan nan nan nan nan nan nan nan nan nan nan nan nan nan nan nan nan nan nan nan nan nan nan nan nan nan nan nan nan nan nan nan nan nan nan nan nan nan nan nan nan nan nan nan -12 -19 -19 -20
nan nan nan nan nan nan nan nan nan nan nan nan nan nan nan nan nan nan nan nan nan nan nan nan nan nan nan nan nan nan nan nan nan nan nan nan nan nan nan nan nan nan nan nan nan nan nan nan nan nan nan nan nan nan nan nan nan nan nan nan nan nan nan nan nan nan nan nan nan nan nan nan nan nan nan nan nan nan nan nan nan nan -14 -25 -25 nan
nan nan nan nan nan nan nan nan nan nan nan nan nan nan nan nan nan nan nan nan nan nan nan nan nan nan nan nan nan nan nan nan nan nan nan nan nan nan nan nan nan nan nan nan nan nan nan nan nan nan nan nan nan nan nan nan nan nan nan nan nan nan nan nan nan nan nan nan nan nan nan nan nan nan nan nan nan nan nan nan nan nan -22 nan nan nan
nan nan nan nan nan nan nan nan nan nan nan nan nan nan nan nan nan nan nan nan nan nan nan nan nan nan nan nan nan nan nan nan nan nan nan nan nan nan nan nan nan nan nan nan nan nan nan nan nan nan nan nan nan nan nan nan nan nan nan nan nan nan nan nan nan nan nan nan nan nan nan nan nan nan nan nan nan nan nan nan nan nan nan nan nan nan
nan nan nan nan nan nan nan nan nan nan nan nan nan nan nan nan nan nan nan nan nan nan nan nan nan nan nan nan nan nan nan nan nan nan nan nan nan nan nan nan nan nan nan nan nan nan nan nan nan nan nan nan nan nan nan nan nan nan nan nan nan nan nan nan nan nan nan nan nan nan nan nan nan nan nan nan nan nan nan nan nan nan nan nan nan nan
nan nan nan nan nan nan nan nan nan nan nan nan nan nan nan nan nan nan nan nan nan nan nan nan nan nan nan nan nan nan nan nan nan nan nan nan nan nan nan nan nan nan nan nan nan nan nan nan nan nan nan nan nan nan nan nan nan nan nan nan nan nan nan nan nan nan nan nan nan nan nan nan nan nan nan nan nan nan nan nan nan nan nan nan nan nan
nan nan nan nan nan nan nan nan nan nan nan nan nan nan nan nan nan nan nan nan nan nan nan nan nan nan nan nan nan nan nan nan nan nan nan nan nan nan nan nan nan nan nan nan nan nan nan nan nan nan nan nan nan nan nan nan nan nan nan nan nan nan nan nan nan nan nan nan nan nan nan nan nan nan nan nan nan nan nan nan nan nan nan nan nan nan
nan nan nan nan nan nan nan nan nan nan nan nan nan nan nan nan nan nan nan nan nan nan nan nan nan nan nan nan nan nan nan nan nan nan nan nan nan nan nan nan nan nan nan nan nan nan nan nan nan nan nan nan nan nan nan nan nan nan nan nan nan nan nan nan nan nan nan nan nan nan nan nan nan nan nan nan nan nan nan nan nan nan nan nan nan nan
nan nan nan nan nan nan -5 -6 -5 -5 -3 -4 nan nan nan nan nan nan nan nan nan nan nan nan nan nan nan nan nan nan nan nan nan nan nan nan nan nan nan nan nan nan nan nan nan nan nan nan nan nan nan nan nan nan nan nan nan nan nan nan nan nan nan nan nan nan nan nan nan nan nan nan nan nan nan nan nan nan nan nan nan nan nan nan nan nan
nan nan nan nan nan nan -6 nan -5 -5 -3 -4 nan nan -6 nan nan nan nan nan nan nan nan nan nan nan nan nan nan nan nan nan nan nan nan nan nan nan nan nan nan nan nan nan nan nan nan nan nan nan nan nan nan nan nan nan nan nan nan nan nan nan nan nan nan nan nan nan nan nan nan nan nan nan nan nan nan nan nan nan nan nan nan nan nan nan
nan nan nan nan nan -3 -5 -6 -4 -4 -4 -4 -5 -5 -4 nan nan nan nan nan nan nan nan nan nan nan nan nan nan nan nan nan nan nan nan nan nan nan nan nan nan nan nan nan nan nan nan nan nan nan nan nan nan nan nan nan nan nan nan nan nan nan nan nan nan nan nan nan nan nan nan nan nan nan nan nan nan nan nan nan nan nan nan nan nan nan
Wind_Speed
2 2 2 3 3 3 2 3 3 3 3 3 2 1 2 1 1 1 1 1 1 1 2 2 2 2 2 3 5 6 7 8 9 9 9 9 9 9 8 8 8 8 8 7 7 6 6 6 6 5 5 4 4 3 2 2 3 3 4 4 4 5 6 8 9 9 9 9 10 10 11 11 11 11 11 10 10 10 9 9 8 8 7 5 4 3
2 2 2 3 3 3 2 4 4 4 4 4 4 3 3 2 2 2 2 2 2 2 2 2 2 2 2 2 4 6 7 8 9 9 9 9 10 9 9 9 9 8 8 8 7 7 7 7 7 7 6 6 5 4 3 2 2 2 3 4 4 4 5 6 7 8 8 8 9 10 11 11 11 11 10 10 9 9 9 8 8 7 6 5 4 3
1 2 2 3 3 2 2 3 3 3 4 4 4 4 5 4 3 2 2 2 2 2 2 3 3 4 3 1 3 5 6 7 8 9 9 10 10 10 10 10 9 9 9 8 8 8 8 7 7 7 7 6 6 5 5 4 4 3 4 5 5 6 6 6 7 7 8 9 10 11 12 11 11 10 9 9 9 8 8 7 7 6 5 4 3 3
1 1 2 2 1 1 1 2 2 2 2 2 3 4 4 3 3 2 2 2 2 2 3 4 4 4 4 3 2 2 4 6 7 8 9 10 11 11 11 10 10 10 9 9 8 8 8 8 7 7 7 6 6 6 5 4 4 4 5 7 8 8 9 9 8 9 9 10 11 11 11 11 10 9 9 8 8 8 8 7 7 6 5 4 3 2
1 1 1 1 1 1 1 1 2 2 2 2 2 3 3 2 2 2 2 3 3 3 3 3 3 3 3 3 3 3 4 5 6 8 10 11 12 12 11 11 11 10 10 9 9 9 8 8 8 7 6 6 6 5 5 5 5 5 7 9 10 11 12 11 11 11 11 11 11 11 10 10 9 9 8 8 8 8 8 7 7 6 5 4 3 2
1 1 1 1 1 1 1 1 1 2 2 2 2 2 2 2 2 2 2 2 2 2 2 2 2 2 3 3 4 5 5 5 6 8 10 12 12 12 12 12 11 11 10 10 9 9 9 8 8 7 6 6 6 6 6 6 6 7 8 10 11 12 12 12 12 12 11 11 10 10 10 10 9 9 8 8 8 7 7 7 6 5 5 4 3 2
1 1 1 0 1 1 1 1 1 1 2 2 1 1 1 2 2 2 2 2 2 2 1 1 1 2 2 3 5 5 5 4 6 9 11 12 12 12 12 12 11 11 10 10 10 9 9 9 8 7 7 6 7 7 7 7 8 8 9 10 11 12 13 12 12 12 11 11 10 10 10 10 10 9 9 8 7 7 6 6 5 5 4 3 2 2
1 0 1 1 1 1 1 1 1 1 1 2 1 1 0 0 1 1 1 1 1 1 1 1 1 1 2 3 4 5 3 2 5 7 9 11 11 12 12 12 12 11 11 10 10 9 9 9 8 7 7 7 7 8 8 8 9 9 10 10 11 12 12 12 12 12 11 11 10 10 10 10 10 9 9 8 7 7 6 5 5 4 3 2 1 1
3 2 2 2 2 2 2 1 1 1 1 1 1 1 1 1 1 1 1 1 1 1 1 1 1 2 2 3 4 4 3 1 3 5 6 6 7 9 10 11 11 11 10 10 10 9 9 8 8 7 7 7 7 8 8 9 9 9 10 10 11 11 11 11 11 11 11 10 10 9 9 9 8 8 7 7 7 6 6 5 4 3 3 2 2 2
3 4 4 3 2 1 2 2 1 1 1 0 1 1 2 1 1 1 1 1 1 1 1 2 2 2 2 3 4 4 4 2 4 5 6 6 6 7 8 8 9 9 10 10 10 9 8 8 7 6 6 7 7 8 8 9 9 9 9 10 10 10 10 10 10 10 10 9 9 8 8 7 7 6 6 6 5 5 5 5 4 4 3 3 3 3
3 3 3 2 1 0 1 1 1 1 1 1 1 1 1 2 2 2 2 1 1 2 2 2 2 2 2 3 3 4 4 3 3 4 5 6 7 7 8 8 8 8 9 9 9 9 8 7 6 6 6 6 7 8 8 8 9 9 9 9 9 9 9 9 9 9 9 8 8 7 7 6 5 5 4 4 4 4 4 4 4 3 3 4 4 5
2 2 1 1 0 0 1 0 0 1 0 1 1 2 2 2 2 2 2 1 1 2 2 2 2 2 2 2 2 3 3 3 3 3 3 3 3 4 5 5 6 7 8 8 8 7 7 6 5 5 5 6 7 8 8 8 9 9 9 9 8 8 8 8 8 8 8 7 7 6 6 5 4 3 3 3 3 3 3 3 3 3 3 4 4 5
1 1 0 1 1 1 1 1 1 1 1 1 2 2 2 1 1 0 0 1 1 1 2 1 1 1 1 1 1 2 2 2 2 2 2 2 3 2 2 2 3 3 4 4 4 4 5 5 4 4 3 4 6 7 8 9 9 9 9 9 8 8 8 7 7 7 6 6 5 5 4 4 3 2 2 2 2 2 2 2 2 2 3 4 4 5
1 1 1 1 1 2 2 1 1 2 2 2 1 1 1 1 1 1 1 1 2 1 1 1 1 1 1 1 0 1 2 1 1 1 2 2 2 2 2 1 2 2 2 2 2 2 3 3 3 2 2 3 4 6 8 9 9 9 9 9 8 8 7 7 6 6 5 4 4 4 3 3 2 2 1 1 1 1 1 1 2 2 3 4 5 5
2 1 1 2 2 2 1 1 1 1 1 1 0 1 1 1 1 1 1 1 1 1 1 1 1 1 0 0 0 0 1 1 0 1 1 1 2 2 2 1 1 2 2 2 2 2 2 2 2 2 2 3 4 5 7 8 9 9 9 9 8 8 7 6 6 5 4 4 3 3 2 2 2 1 1 0 1 1 2 2 3 3 4 4 5 5
1 1 1 2 2 1 1 0 0 0 0 1 1 1 0 0 0 1 1 1 1 1 1 1 1 1 1 1 1 0 0 1 0 1 1 1 1 1 2 1 1 2 2 2 2 2 1 1 1 2 2 4 5 6 7 8 9 9 9 8 8 7 7 6 5 4 4 3 3 2 2 2 2 2 2 1 2 2 2 3 3 4 4 5 5 6
1 1 1 2 2 1 1 0 0 0 1 1 1 0 0 1 1 1 1 1 1 1 1 1 1 1 1 1 1 1 0 0 0 1 2 1 0 1 2 1 0 2 2 2 2 2 1 1 1 2 2 5 6 8 8 9 9 9 9 8 8 7 7 6 5 4 3 3 3 3 3 3 3 3 3 3 3 3 3 3 4 4 4 5 5 6
1 1 1 1 1 1 1 1 1 0 0 0 1 0 0 1 1 1 1 1 1 1 1 1 1 1 1 1 1 1 0 0 1 1 1 1 0 1 1 1 1 1 2 2 2 2 1 1 2 2 2 5 7 8 9 9 9 9 9 8 8 7 6 6 5 4 4 4 4 4 4 4 5 5 5 4 4 4 4 4 4 4 5 5 6 6
1 1 1 1 1 1 1 0 0 0 0 1 1 1 0 0 1 1 1 1 1 1 2 2 2 1 1 1 1 1 1 1 1 2 2 1 1 1 1 1 1 1 1 2 2 1 1 1 1 2 2 4 6 8 9 9 10 9 9 8 8 7 6 6 5 5 5 5 5 5 5 5 6 6 6 5 5 5 4 4 5 5 5 5 6 6
2 1 1 1 1 1 1 1 0 0 0 0 1 1 1 1 1 1 1 1 1 1 1 2 2 1 0 1 1 1 2 1 1 1 2 2 1 1 1 1 1 1 1 1 1 1 1 0 0 1 2 3 5 7 9 9 9 9 9 8 8 7 6 6 6 6 6 6 6 6 6 6 7 7 7 6 6 5 5 5 5 5 5 6 6 6
2 1 1 1 1 1 1 1 1 1 0 1 1 1 1 1 1 1 1 1 1 1 1 2 1 1 2 2 1 1 2 1 1 1 2 1 1 1 1 0 1 1 1 1 1 1 1 1 1 1 2 3 5 7 8 9 9 9 9 8 7 7 7 6 6 6 6 7 7 7 7 7 7 7 7 7 6 6 5 5 5 5 6 6 6 7
2 2 2 2 1 1 1 2 2 2 1 1 1 1 1 1 1 1 1 1 2 2 2 0 1 2 2 2 1 2 2 2 1 1 1 1 1 1 1 1 1 1 2 1 1 1 1 1 1 2 3 5 6 7 8 9 9 9 9 8 8 7 7 7 7 7 7 8 8 8 8 8 8 8 8 7 7 6 6 5 5 5 6 6 7 7
2 2 2 2 2 2 2 2 2 2 1 0 0 1 0 0 0 1 1 1 1 1 1 2 2 2 1 1 1 1 1 1 2 1 1 2 1 1 2 1 1 1 2 2 1 1 1 1 2 2 4 6 7 8 8 9 9 9 9 8 8 8 8 8 8 8 8 8 8 8 8 8 8 8 8 8 7 6 6 6 6 6 6 6 7 7
2 2 2 2 2 2 2 2 2 2 1 1 2 2 2 2 2 2 2 2 2 2 2 2 2 2 1 1 1 1 0 1 1 1 1 2 1 1 1 1 1 2 3 1 1 2 2 2 2 2 3 6 7 8 9 9 9 9 9 9 9 9 9 9 9 9 9 9 9 9 9 9 9 9 8 8 7 7 6 6 6 6 6 7 7 7
2 2 2 1 2 2 1 2 2 2 2 2 2 2 2 2 2 2 2 3 2 2 2 1 1 1 1 1 1 1 1 0 1 1 1 1 1 1 2 1 1 2 2 1 1 2 2 2 2 2 2 5 7 9 10 10 10 10 10 10 10 10 10 10 10 10 10 10 9 9 9 9 9 9 8 8 8 7 7 7 6 6 7 7 7 7
3 2 2 2 2 2 2 2 3 3 3 2 2 2 2 2 2 1 2 1 1 1 1 0 1 1 1 1 1 1 1 1 0 1 1 1 0 1 1 1 1 2 2 1 1 2 2 2 2 3 3 4 6 8 10 10 10 10 10 10 10 10 10 10 11 10 10 10 10 10 9 9 9 9 9 8 8 8 7 7 7 7 7 7 7 6
4 4 4 3 3 3 3 3 3 4 4 3 3 2 2 1 1 1 1 1 1 1 1 1 1 2 1 1 1 1 1 1 1 1 1 1 1 0 1 1 1 1 2 1 1 2 2 3 3 3 3 3 4 6 9 10 10 11 11 11 11 11 11 11 11 11 11 11 10 10 9 9 9 9 9 9 8 8 8 8 7 7 7 6 6 5
5 5 5 5 4 4 4 4 5 5 5 4 4 3 2 1 0 0 0 1 1 1 1 1 2 2 1 1 1 1 1 1 2 2 1 1 1 1 1 1 1 1 1 1 1 2 3 3 3 3 2 3 3 4 6 8 9 10 10 11 11 11 11 11 11 11 11 11 10 10 10 10 9 9 9 9 9 9 8 8 8 7 7 5 4 3
4 4 5 5 5 5 5 5 5 5 5 5 4 3 2 1 1 1 1 1 1 1 1 1 1 1 1 1 1 1 1 2 2 3 2 1 1 1 2 1 1 1 1 1 1 2 2 3 2 2 2 3 3 2 3 5 6 7 8 10 11 11 11 11 11 11 11 11 10 10 10 10 10 10 10 10 9 9 9 9 8 7 5 4 3 3
2 3 3 4 4 5 5 5 5 5 6 5 5 4 3 2 2 2 2 1 0 0 1 1 1 1 0 1 0 1 1 1 2 3 3 2 1 1 2 1 1 1 1 1 1 1 2 2 1 1 1 2 2 1 1 2 3 3 5 7 8 9 10 11 11 11 11 11 10 10 10 10 10 10 10 10 10 10 10 10 8 6 4 3 3 2
1 2 2 2 3 3 3 3 3 4 4 4 4 4 3 3 2 2 2 1 1 1 1 1 1 1 0 0 1 1 0 1 2 2 3 2 1 1 2 2 1 1 1 1 1 1 1 1 1 1 1 1 1 1 2 2 2 2 2 3 4 6 9 10 10 10 10 10 10 11 11 11 11 11 11 11 11 10 10 10 9 7 4 3 3 3
1 1 1 1 1 1 1 2 2 2 2 3 3 3 3 3 2 2 2 2 2 1 1 1 1 1 1 1 1 1 1 1 2 2 2 2 1 0 1 1 1 1 1 1 1 1 1 0 1 1 1 1 1 2 2 2 2 2 2 3 3 4 7 8 8 8 8 9 10 11 11 11 11 11 11 11 11 11 11 11 10 7 4 4 3 3
1 1 1 1 1 1 1 1 1 1 2 2 2 2 2 2 2 2 2 2 2 2 2 2 1 1 1 1 1 1 1 1 2 3 3 2 1 0 0 1 1 1 1 1 1 1 1 1 0 1 1 2 2 2 2 3 3 3 3 3 3 3 5 6 6 6 6 7 8 9 11 11 12 12 12 12 12 11 11 12 11 9 6 4 4 4
1 1 1 1 1 1 1 1 1 1 2 2 2 2 2 2 2 2 2 2 2 2 2 2 2 2 1 1 1 1 1 2 2 2 3 2 1 0 1 1 1 1 2 1 1 1 2 1 1 1 1 2 2 2 2 3 3 3 2 3 3 3 4 4 4 4 5 5 5 6 7 8 9 10 11 11 11 11 12 12 12 12 10 7 5 4
1 1 2 1 1 1 2 2 2 2 2 2 2 2 2 2 2 2 2 2 2 2 2 2 2 2 2 1 1 1 1 2 1 2 2 1 1 0 1 2 2 2 2 2 2 1 1 2 2 2 1 1 2 2 2 2 2 2 2 2 3 3 3 3 3 3 4 3 3 3 3 4 5 6 7 9 10 11 12 12 13 13 13 11 8 6
2 2 2 2 2 2 2 2 2 2 2 2 2 1 1 1 1 2 2 2 2 1 1 1 1 1 1 1 2 1 1 1 1 1 2 2 1 1 1 2 2 2 2 2 2 2 2 2 2 2 2 2 2 1 2 2 2 1 2 2 2 3 2 2 2 2 3 3 3 3 3 3 3 3 4 7 9 10 11 12 13 14 14 13 12 9
2 2 2 2 2 1 1 1 1 2 2 2 2 1 1 1 1 1 1 1 1 1 1 1 1 1 1 1 1 1 1 1 0 1 2 1 1 1 2 1 1 1 2 2 2 2 2 2 2 2 2 2 2 1 2 2 2 2 2 2 3 3 2 2 1 2 2 2 2 2 3 3 3 4 4 7 8 9 10 12 13 14 15 15 14 12
2 2 2 1 1 1 1 1 1 1 2 2 2 2 2 1 1 1 1 1 1 1 1 1 1 1 1 1 1 1 1 1 1 1 1 1 1 1 2 1 1 1 2 2 1 1 1 2 2 2 2 2 2 2 2 2 2 2 2 3 3 3 2 2 2 2 2 2 2 3 3 3 3 3 4 5 5 5 6 7 8 11 13 13 14 14
2 2 1 1 1 2 1 1 1 1 2 2 2 2 2 2 1 1 1 0 0 1 1 1 0 0 1 1 1 1 1 1 1 1 1 1 1 1 2 2 1 1 1 1 1 1 1 2 2 2 2 2 2 2 2 2 2 2 2 2 2 2 3 3 3 2 2 2 3 3 3 3 3 3 3 3 3 4 4 4 5 7 8 8 9 12
2 2 1 1 1 1 1 1 2 2 2 2 2 2 2 1 1 1 1 1 1 1 1 1 1 1 1 2 2 2 2 1 1 1 1 0 1 1 2 2 2 1 1 0 1 1 2 2 2 2 2 2 1 1 1 2 2 2 3 2 2 2 3 3 3 3 3 3 3 3 3 2 2 2 3 3 3 4 4 4 4 5 5 5 5 7
2 2 2 1 1 2 3 3 3 2 2 2 2 1 1 1 1 1 2 2 2 2 2 2 2 2 2 3 3 3 3 3 3 2 2 1 1 1 2 2 2 1 1 1 1 1 2 2 2 3 2 2 2 1 1 2 2 3 3 2 2 2 3 4 4 3 3 3 3 3 3 3 3 3 3 3 3 3 3 3 4 4 5 4 4 4
2 2 2 1 1 2 2 2 2 2 2 1 1 1 2 2 2 2 1 2 2 2 2 2 2 2 2 3 3 3 3 3 3 3 3 3 2 2 2 2 2 1 1 1 2 2 2 3 3 3 3 2 2 2 2 1 2 3 3 2 2 2 2 4 4 3 4 4 3 4 4 3 3 3 3 3 3 3 4 4 4 5 5 5 4 4
2 2 1 1 2 3 3 3 2 2 2 1 1 2 2 2 2 2 2 2 2 2 2 2 2 2 2 2 2 3 3 3 3 4 4 4 3 3 3 3 2 2 1 2 2 2 3 3 3 3 3 2 2 2 2 2 2 2 2 2 2 2 1 2 3 3 3 4 4 4 4 3 3 3 3 3 3 3 4 4 5 6 5 4 4 4
2 1 0 2 2 2 2 2 2 2 2 2 2 2 2 2 2 2 2 2 2 2 2 2 2 2 2 3 3 2 3 3 2 3 3 4 4 4 3 3 3 2 2 2 2 2 2 3 3 3 3 2 2 3 3 2 2 2 2 3 3 3 2 2 3 3 3 3 3 4 4 3 3 3 3 3 3 3 3 3 3 3 4 3 3 3
1 1 1 2 2 2 2 2 2 2 2 2 2 2 2 2 2 2 2 2 2 2 2 1 1 2 2 2 3 2 2 2 2 2 2 4 5 5 4 3 3 3 3 3 3 2 2 2 2 2 2 2 3 3 3 3 3 3 3 3 4 3 3 2 2 3 3 3 3 4 4 4 3 3 3 3 3 3 3 3 3 3 3 3 3 3
2 2 1 2 2 2 2 2 2 2 2 2 2 2 2 2 2 2 2 2 2 2 2 2 1 2 2 2 3 2 2 2 2 2 2 3 3 3 3 3 3 3 2 3 3 3 2 2 2 2 2 2 3 3 3 3 3 3 3 3 3 3 3 2 2 3 3 3 3 4 4 4 3 3 3 3 3 3 3 3 4 4 4 4 4 4
2 2 2 2 2 2 2 2 2 2 2 2 2 2 3 2 2 2 2 2 2 2 2 2 2 2 3 3 3 3 3 2 2 3 3 3 3 3 3 3 3 3 3 2 2 2 3 2 2 2 2 2 3 3 3 3 3 3 3 3 3 3 3 3 3 3 4 4 4 4 4 4 4 3 4 3 3 3 3 4 4 5 5 5 5 5
3 2 2 2 2 2 2 2 2 2 3 3 2 2 3 2 3 3 2 2 2 2 3 2 3 3 3 3 3 3 3 3 2 2 3 3 3 3 3 2 2 2 2 3 3 3 3 3 3 3 3 3 3 3 3 3 3 4 4 3 3 3 3 3 3 3 4 4 4 5 5 4 4 4 4 3 3 3 3 4 4 5 5 5 5 5
2 2 2 2 2 2 2 2 3 3 3 3 3 2 3 2 3 3 2 2 2 2 2 3 3 3 4 4 3 3 4 3 3 2 2 3 3 3 3 3 2 2 2 2 3 3 3 4 5 5 5 5 5 4 4 4 4 4 3 3 3 3 3 3 3 3 4 4 4 5 5 5 4 4 4 4 4 4 4 4 4 5 5 5 5 6
2 2 3 3 3 3 3 3 3 3 3 3 3 3 2 2 2 2 2 2 2 2 2 3 3 4 4 4 3 3 3 3 3 2 2 2 3 3 3 3 3 2 2 2 2 2 2 3 5 7 9 10 9 7 5 5 4 4 4 4 4 3 3 3 3 3 4 4 4 4 5 4 4 4 4 4 4 4 4 4 4 4 5 5 5 6
3 3 3 3 3 3 3 3 3 3 3 3 3 3 3 2 2 2 2 2 2 2 3 3 4 4 4 4 4 3 3 3 3 2 2 2 3 3 3 3 3 2 2 2 2 2 2 2 3 5 8 13 14 13 8 6 5 4 4 4 3 3 3 3 3 3 4 4 4 4 4 4 4 4 4 4 4 4 4 4 4 4 4 4 5 5
Wind_Direction
48 43 36 19 2 343 342 359 355 345 333 327 347 40 88 79 36 357 352 338 324 307 289 281 273 251 196 175 171 170 171 171 170 168 164 160 157 153 150 145 138 130 122 112 102 89 74 61 50 42 36 34 37 51 79 99 104 101 97 92 92 96 103 107 110 112 115 116 114 110 105 102 100 99 100 101 102 102 102 100 98 95 92 88 84 81
59 43 31 24 14 358 342 3 7 1 344 338 345 357 3 356 353 353 354 350 337 323 314 314 306 292 255 195 183 183 185 184 182 177 170 164 159 155 151 146 139 131 122 113 103 91 78 65 54 44 35 26 20 16 15 29 47 58 63 69 74 83 97 108 114 116 117 113 109 105 102 100 100 100 101 102 103 103 102 100 98 95 92 88 81 73
55 38 24 27 22 8 337 357 7 6 348 337 338 342 343 341 345 354 1 352 346 344 354 355 341 324 305 269 201 197 199 198 193 185 175 165 158 153 150 144 137 129 121 113 104 94 84 73 62 52 41 33 24 17 12 16 23 37 55 67 71 75 85 97 106 110 111 108 106 104 103 104 105 106 107 108 107 106 104 101 98 94 90 84 76 67
64 43 28 22 14 357 327 347 357 1 351 330 327 330 336 340 349 5 17 3 358 4 16 8 354 338 326 331 311 248 229 218 205 190 175 164 156 151 146 140 133 127 120 113 106 98 89 79 70 61 51 43 35 29 25 27 36 54 72 79 80 79 79 83 89 95 99 103 106 108 109 111 113 113 113 113 111 108 105 102 97 93 86 79 69 56
20 50 40 14 347 325 324 342 346 342 334 323 322 328 343 356 11 23 30 15 8 8 14 7 356 345 335 334 325 305 271 240 212 189 172 160 152 147 142 137 131 126 120 115 108 101 94 86 77 69 61 54 49 45 43 49 63 78 89 92 91 88 85 85 87 90 94 100 105 108 110 111 112 111 110 110 109 107 105 102 98 92 84 74 59 40
334 51 56 18 328 315 324 335 338 335 326 318 321 340 12 22 26 30 33 22 14 8 5 359 352 344 337 329 318 304 280 243 204 179 164 155 149 144 139 135 130 126 122 117 111 105 98 91 84 77 70 65 61 59 58 64 75 87 97 99 98 97 95 93 93 93 95 97 98 99 99 99 99 98 98 99 100 101 101 100 97 93 85 73 54 29
317 84 94 209 258 276 287 289 300 306 304 301 307 340 41 40 34 30 32 25 15 2 349 344 343 342 342 335 322 307 277 223 181 163 155 150 145 141 138 134 131 127 124 119 113 108 102 95 90 84 78 74 70 69 68 72 78 87 94 98 99 99 99 98 98 97 95 93 91 90 88 87 87 86 85 86 86 88 89 91 92 90 86 74 51 16
291 198 196 225 239 244 241 243 248 256 267 279 282 282 155 92 68 49 44 37 23 5 341 339 347 358 1 351 335 319 288 191 158 150 148 145 141 138 136 134 132 129 125 121 117 112 106 101 96 92 87 83 80 78 76 77 80 84 89 93 96 98 100 100 100 99 96 93 90 88 85 83 81 79 77 75 73 72 71 73 74 75 73 60 31 347
285 275 256 249 253 262 268 261 244 223 220 266 277 278 266 236 196 169 159 123 75 39 357 348 359 13 13 5 346 334 332 109 129 134 138 136 136 136 135 133 131 130 128 125 121 117 113 109 106 102 99 95 92 88 86 85 86 87 90 93 95 98 100 101 101 100 98 96 93 90 86 83 80 77 74 70 65 61 56 53 50 46 38 18 347 320
275 277 277 272 274 286 296 298 321 30 65 325 293 294 291 277 258 232 216 170 118 76 33 13 11 12 10 5 354 346 350 48 95 112 122 124 128 131 131 131 131 131 131 129 127 124 121 120 119 117 116 112 108 104 100 98 96 96 97 98 99 100 101 102 102 101 100 99 96 94 90 87 83 79 75 69 63 56 49 42 34 24 10 348 326 309
264 267 275 284 310 342 297 305 351 28 32 340 292 279 270 263 260 256 254 212 140 100 65 40 27 16 5 359 352 349 353 21 51 75 96 109 119 125 127 130 133 135 135 134 133 131 130 131 133 135 136 133 128 123 117 113 111 109 108 107 106 105 104 104 104 103 102 102 100 99 97 94 90 85 80 73 65 56 46 35 23 10 352 332 315 302
265 270 284 299 307 282 242 233 85 51 4 290 269 258 245 235 233 241 257 249 141 112 95 70 51 36 20 359 345 341 348 12 28 39 50 65 79 97 115 125 132 136 137 136 135 135 136 140 145 151 154 152 146 140 134 130 127 124 122 119 116 113 111 109 108 107 107 106 106 105 105 104 101 98 93 81 70 56 42 27 11 352 332 314 302 293
272 282 306 283 266 251 238 216 195 183 212 230 244 252 254 230 205 194 280 11 52 81 104 97 82 67 58 29 350 336 336 2 24 39 45 36 28 26 51 99 116 124 129 127 125 128 135 144 152 161 173 169 160 153 148 146 143 139 136 132 128 124 121 118 116 115 114 114 115 115 117 118 119 117 112 92 71 52 30 7 343 321 305 295 288 282
269 265 258 257 253 249 242 221 209 209 215 218 236 273 335 25 54 73 78 55 46 47 76 92 91 83 82 65 22 339 323 342 16 46 50 37 14 360 359 57 90 101 108 107 107 112 123 133 142 158 185 187 173 163 160 157 154 151 148 143 139 136 132 130 128 127 127 128 129 132 136 140 142 143 135 98 55 21 352 325 307 294 286 281 278 274
264 252 247 250 252 251 247 229 221 220 217 182 89 19 11 23 45 79 111 100 87 71 76 93 99 103 118 101 72 352 317 316 25 87 74 43 8 351 343 26 78 94 101 108 107 105 104 114 125 144 177 207 195 181 175 172 166 161 157 152 148 145 143 141 140 141 143 146 150 157 164 170 176 183 192 230 316 316 305 295 288 282 277 274 272 270
260 252 253 261 265 268 269 265 261 267 20 79 81 82 58 155 171 168 171 135 128 128 140 154 165 177 172 149 141 140 317 306 218 137 117 72 12 349 338 359 87 109 109 116 117 115 103 107 141 168 191 202 196 189 185 184 178 170 166 162 158 155 153 154 154 157 162 169 178 188 197 205 212 220 229 246 265 277 283 282 279 277 273 271 269 267
280 276 270 276 280 283 286 21 55 55 63 81 98 148 240 244 230 208 189 148 144 156 178 181 188 195 192 166 154 149 142 266 215 150 128 118 40 351 339 343 123 143 135 135 133 134 140 156 173 194 209 201 191 184 184 186 184 180 176 172 169 166 166 167 170 175 183 194 205 215 222 227 231 234 237 243 252 262 270 274 275 274 272 269 267 264
277 270 267 268 274 283 317 55 57 37 67 123 141 171 271 310 308 279 209 160 163 179 193 200 204 205 186 170 151 131 111 201 184 160 145 158 131 27 359 340 306 177 155 152 146 145 155 166 175 192 216 192 186 184 184 188 188 186 184 181 179 178 178 181 186 193 203 212 221 228 233 237 238 239 240 243 248 255 263 269 271 272 270 268 265 262
272 273 274 280 290 310 342 24 73 206 237 198 173 161 189 342 325 295 247 196 191 196 205 215 224 224 202 166 107 62 5 303 208 181 173 181 151 75 30 346 317 278 174 154 142 134 139 154 178 191 203 189 186 186 187 190 191 191 190 189 188 188 189 193 200 208 216 224 230 235 238 240 242 242 242 243 246 251 257 264 267 269 268 266 263 260
288 287 284 298 310 315 315 317 305 261 240 182 165 169 192 184 209 232 236 219 217 223 233 237 243 245 213 79 58 24 347 323 258 197 188 177 141 98 51 356 310 290 235 155 127 111 122 134 165 206 210 199 194 193 193 195 195 195 195 195 196 198 200 205 212 218 225 230 235 238 241 243 245 246 245 245 245 247 252 257 261 264 264 263 261 258
288 290 323 343 328 311 304 324 339 351 22 107 149 183 200 187 198 214 218 216 222 231 237 237 255 346 23 36 30 6 345 326 270 211 195 181 151 123 107 189 264 261 252 182 121 115 147 174 187 219 229 213 207 204 202 202 201 200 200 201 203 206 210 215 220 225 230 234 237 240 243 245 247 248 248 246 245 245 247 251 255 258 260 260 259 256
306 323 2 2 347 320 312 330 351 11 72 131 176 202 202 196 203 210 211 210 214 223 235 298 46 52 40 39 21 1 349 334 312 265 189 201 182 149 123 156 207 229 242 209 139 126 166 188 203 217 225 222 218 214 212 210 208 207 207 209 211 215 219 223 227 230 233 236 238 240 243 245 248 249 249 247 245 242 243 246 250 253 256 258 257 255
328 340 354 356 354 347 336 336 346 1 41 103 267 300 331 292 261 227 197 202 189 131 88 76 73 73 79 69 42 8 356 341 330 316 202 219 195 132 108 133 183 215 241 213 161 144 179 195 206 218 226 225 224 222 220 218 215 214 214 216 219 223 226 229 231 233 234 236 237 240 242 245 248 249 249 247 244 241 240 242 245 249 253 256 257 256
352 353 1 3 2 355 338 329 332 344 12 31 37 33 22 18 17 19 20 31 46 63 75 91 104 115 119 122 110 73 32 356 330 309 267 232 203 129 101 137 188 217 237 216 160 147 179 195 203 212 222 226 227 227 226 224 222 220 221 223 226 228 231 232 233 234 235 235 237 238 241 244 246 248 248 246 243 239 237 238 240 244 249 254 256 256
12 10 9 5 1 353 334 329 340 358 30 56 67 66 56 54 53 53 53 57 66 81 100 107 122 144 146 127 115 111 116 80 316 299 284 262 210 123 117 163 200 216 232 194 141 140 183 202 205 205 209 222 226 228 229 228 227 226 226 228 230 231 233 234 234 234 234 235 236 237 240 242 245 246 246 244 240 237 234 234 236 239 244 250 256 258
38 34 31 26 19 12 5 5 12 24 43 70 87 91 87 81 76 74 76 84 95 103 106 125 215 216 169 141 146 157 136 138 231 279 288 289 293 116 125 181 217 228 239 172 141 152 200 217 214 206 197 212 221 225 227 229 229 229 229 230 232 233 234 234 235 234 234 234 235 236 238 241 243 244 243 241 237 234 231 231 232 234 239 246 252 256
53 49 47 47 48 51 53 52 51 53 57 72 87 99 109 107 100 98 103 117 127 134 156 220 241 239 190 172 171 163 138 150 184 234 270 292 282 209 131 159 216 244 251 212 174 181 211 228 227 214 197 197 207 216 224 227 229 231 232 232 233 234 235 235 235 234 234 234 234 235 237 239 241 241 240 237 233 230 227 226 227 230 234 240 247 252
61 55 52 53 56 62 66 67 67 67 67 72 78 86 93 96 133 150 144 131 133 147 192 229 251 257 234 190 151 132 139 168 182 189 195 261 264 234 113 137 191 237 254 254 226 213 218 232 234 223 198 181 184 202 218 224 228 231 233 234 235 235 235 235 235 234 234 234 234 235 236 238 239 239 237 234 230 227 223 222 222 225 230 234 237 241
77 66 57 53 54 57 62 65 66 66 64 62 58 52 37 14 351 359 47 78 104 152 212 238 256 273 305 37 76 116 176 187 179 169 158 202 237 219 106 136 181 208 231 252 244 230 221 225 226 218 187 162 161 179 209 220 227 232 236 236 236 236 235 235 235 235 234 234 235 235 236 237 238 237 235 232 228 224 220 217 217 218 223 227 230 231
95 79 65 55 52 51 53 54 56 57 55 51 46 39 29 15 3 6 29 51 89 203 234 250 259 274 358 20 349 229 199 169 158 156 156 191 216 196 115 149 181 197 208 230 238 230 214 205 199 183 133 140 146 160 189 207 219 229 236 236 236 235 235 235 235 235 235 236 236 236 237 237 236 236 234 231 227 222 217 213 210 208 210 217 225 229
87 74 66 58 52 49 48 49 50 50 49 46 43 39 32 23 11 5 9 8 339 278 266 264 264 259 209 250 263 262 162 117 136 155 164 204 217 176 126 157 179 197 218 240 250 247 223 172 143 117 94 133 159 181 192 197 205 213 221 227 231 232 232 232 233 234 235 236 237 237 237 236 235 234 232 230 226 221 216 211 206 200 196 205 215 222
87 82 79 73 66 60 57 56 56 53 48 46 45 42 39 33 24 14 6 1 349 332 312 299 291 276 236 251 270 291 51 96 144 171 183 223 251 88 136 166 174 184 222 258 274 277 278 152 123 129 184 184 193 199 201 200 202 206 212 215 220 225 226 226 228 230 233 235 236 236 236 234 233 231 230 228 225 220 216 212 206 198 188 193 201 209
138 135 133 129 121 108 101 91 80 69 59 55 53 51 46 41 37 32 23 15 6 355 341 332 326 315 285 268 278 301 64 106 157 183 199 228 265 9 196 197 182 175 189 244 274 285 290 310 103 145 186 189 191 195 197 199 201 205 209 211 216 220 221 219 220 222 225 229 232 233 232 231 229 227 227 225 223 220 217 213 208 201 190 187 191 196
181 171 164 158 151 144 139 125 109 93 79 70 63 59 53 48 45 41 36 29 21 13 2 354 347 339 327 302 293 300 81 108 151 188 207 230 242 197 214 226 207 184 173 201 236 260 277 281 271 216 206 191 186 185 190 194 198 203 208 214 218 219 219 212 210 211 216 218 222 224 225 225 224 223 223 223 221 220 218 216 212 207 201 195 190 188
216 200 185 175 169 163 160 146 133 121 108 92 77 67 58 53 50 47 40 35 31 27 19 9 1 351 341 328 313 319 49 94 139 190 217 231 224 185 211 231 222 204 187 195 204 222 251 252 247 243 249 224 199 186 182 182 184 191 206 223 229 229 224 212 206 206 210 209 209 209 208 208 212 216 220 220 220 220 220 218 216 213 209 204 198 192
230 219 200 190 183 179 172 162 152 142 132 115 99 84 71 62 57 52 43 33 28 29 30 24 15 5 352 338 327 334 18 65 132 191 219 231 226 209 220 231 230 224 216 210 208 211 228 238 239 238 246 251 238 202 166 159 162 178 200 225 237 241 240 228 216 210 210 207 203 197 191 189 194 203 212 217 219 220 221 221 220 218 214 210 206 201
233 231 210 191 185 183 181 174 165 155 142 128 123 115 101 83 67 57 48 27 15 7 15 27 29 19 4 348 341 341 353 9 196 205 218 232 240 240 241 239 238 239 243 236 228 223 228 238 238 233 231 241 241 222 155 145 160 187 200 212 223 232 236 233 230 228 224 215 207 198 192 188 189 194 203 213 217 219 222 224 223 221 219 216 212 207
240 241 225 191 174 171 181 189 178 155 131 125 124 123 118 105 91 76 64 39 2 337 333 354 16 13 359 346 334 328 328 331 320 298 270 267 258 255 258 255 246 244 260 267 267 256 241 241 238 235 227 230 232 220 161 153 169 191 198 198 204 211 214 210 214 221 229 225 218 210 202 195 191 191 196 203 207 212 218 224 225 224 221 219 216 213
242 249 249 210 179 170 178 183 153 112 98 102 108 112 115 118 118 118 120 136 225 264 283 300 307 308 316 288 270 264 274 318 330 329 330 321 291 269 265 260 247 240 254 290 299 288 261 248 242 241 239 238 231 211 158 156 172 184 181 181 191 202 205 197 197 205 217 221 222 219 212 203 196 191 192 192 195 199 206 214 219 220 218 218 218 217
233 244 255 237 200 163 149 112 87 82 86 95 103 112 125 139 151 160 177 194 207 216 224 236 246 245 237 238 238 232 215 212 219 230 245 267 275 269 264 261 255 244 225 262 287 280 269 260 259 261 265 268 260 227 154 167 182 186 174 172 186 201 201 193 191 195 204 210 214 216 215 206 199 197 197 194 193 196 200 204 210 213 212 211 213 216
226 232 243 234 139 98 88 81 78 82 90 102 116 135 159 177 183 187 192 200 204 205 204 212 225 231 227 225 225 219 204 199 201 203 186 192 218 245 254 258 259 254 220 214 234 250 256 258 261 266 271 280 285 281 221 194 198 199 194 194 196 193 187 185 186 189 195 203 208 211 211 205 201 200 204 204 202 201 203 204 205 206 206 206 206 208
232 238 235 165 96 85 83 90 96 102 107 121 151 179 190 195 199 204 209 212 207 198 192 203 219 230 232 223 216 207 199 196 194 191 182 189 205 223 237 243 246 243 222 218 224 233 238 245 251 257 262 272 282 283 273 232 207 201 206 216 215 196 176 181 181 183 188 196 203 207 210 206 200 198 203 207 210 211 212 214 213 211 206 203 203 204
233 240 240 103 94 98 109 113 117 123 137 165 194 208 204 200 204 214 229 237 228 210 192 198 217 240 255 247 225 202 188 190 191 188 181 185 199 214 229 230 229 220 209 215 224 229 231 235 241 248 255 263 268 270 270 263 231 205 203 220 226 225 208 186 179 179 187 194 198 202 206 206 202 198 199 204 208 210 213 220 225 226 221 210 203 205
240 244 213 87 99 115 127 138 149 160 173 193 211 218 212 199 200 210 225 244 249 240 208 199 216 244 260 264 254 226 181 172 189 203 190 188 196 209 229 233 229 219 205 210 219 228 230 231 233 237 243 250 254 257 259 263 253 231 211 212 218 224 228 189 168 170 187 195 199 201 204 205 204 203 202 205 206 206 206 210 219 228 235 230 223 217
246 225 138 119 127 145 163 172 174 178 186 200 216 225 221 199 197 203 217 235 249 250 230 206 216 242 253 255 257 246 195 163 173 202 207 200 202 208 223 236 237 228 216 217 222 228 235 236 235 233 231 235 239 243 246 252 257 255 240 221 220 226 240 210 165 161 183 193 199 202 202 201 201 203 206 208 208 206 203 203 209 217 228 231 232 230
243 228 187 164 167 182 200 201 194 188 194 208 222 230 228 203 193 199 215 229 241 246 234 216 220 240 257 259 261 258 236 189 173 178 193 196 199 204 218 232 239 240 234 231 235 242 248 257 263 263 252 241 238 237 234 237 245 252 255 239 228 228 241 229 195 173 177 189 198 199 195 190 193 200 209 210 211 211 209 205 206 209 214 218 222 225
234 233 225 210 204 210 226 230 225 217 216 222 230 235 234 209 194 194 211 224 235 241 237 225 227 238 251 257 260 260 259 241 204 179 171 181 185 190 201 217 231 240 248 250 253 259 265 274 283 286 277 258 247 240 233 228 231 238 246 244 237 229 226 227 211 189 178 189 193 189 178 178 188 202 212 213 215 217 217 213 211 209 209 212 215 219
226 232 238 234 231 230 235 239 240 240 240 240 242 243 242 216 199 195 208 219 231 241 241 234 235 240 246 249 250 250 252 257 242 206 170 169 173 178 183 189 204 222 239 249 257 262 265 265 263 258 252 247 246 245 240 231 227 229 234 237 237 233 225 227 217 200 185 190 186 177 169 176 188 200 206 212 219 223 221 217 214 211 208 209 211 214
218 228 240 244 245 241 238 235 235 238 243 245 247 250 248 225 207 202 207 217 229 238 242 241 242 245 248 248 247 246 245 250 250 235 187 164 161 165 171 172 179 192 212 231 242 250 255 252 244 237 230 230 234 240 245 240 235 230 230 231 232 232 230 227 220 208 196 191 182 175 173 182 191 196 198 210 221 226 224 220 215 211 207 206 208 211
211 220 231 238 242 242 240 236 234 236 240 240 242 245 246 222 199 193 204 219 229 238 242 245 249 251 253 253 252 250 246 245 246 243 218 167 155 156 164 166 171 180 196 211 222 229 238 243 237 230 223 220 221 224 233 237 238 236 234 232 229 227 229 228 222 213 201 192 181 176 177 187 194 199 202 214 223 229 229 225 220 213 205 202 205 210
209 215 219 225 230 233 236 235 235 235 237 236 237 239 244 224 199 189 200 214 227 237 245 249 253 255 258 260 260 259 257 251 250 248 236 175 155 155 163 166 172 181 197 212 219 224 228 239 240 232 222 215 213 213 218 223 228 232 235 233 228 224 224 226 224 217 208 197 184 176 178 190 197 204 208 215 225 232 234 232 226 218 205 200 202 209